Hourly Data Report for October 13, 2016

All times are specified in Local Standard Time (LST). Add 1 hour to adjust for Daylight Saving Time where and when it is observed.

ARVIAT A
NUNAVUT

61°05'38.000" N
94°04'18.000" W
10.40 m
2300427
71174
YEK

Download Data

Hourly Data (October 2016)
Hourly Data Report for October 13, 2016
Temp Definition
°C
Dew Point Temp Definition
°C
Rel Hum Definition
%
Wind Dir Definition
10's deg

Wind Spd Definition
km/h
Visibility Definition
km
Stn Press Definition
kPa
Hmdx Definition


Wind Chill Definition


Weather Definition


TIME
00:00 Legend Double Dagger -6.1 -8.2 86 30 54 9.7 100.22   -17 Snow
01:00 Legend Double Dagger -6.2 -8.2 86 30 52 4.8 100.26   -17 Snow
02:00 Legend Double Dagger -6.4 -8.4 86 30 45 16.1 100.30   -16 LegendNANA
03:00 Legend Double Dagger -6.1 -8.2 85 31 35 16.1 100.33   -15 Snow
04:00 Legend Double Dagger -6.5 -8.9 83 30 41 16.1 100.35   -16 Snow
05:00 Legend Double Dagger -6.5 -9.3 81 30 43 16.1 100.35   -16 Snow
06:00 Legend Double Dagger -6.6 -9.5 80 30 43 16.1 100.36   -17 Snow
07:00 Legend Double Dagger -6.4 -8.8 83 31 37 9.7 100.38   -16 Snow
08:00 Legend Double Dagger -6.6 -8.2 89 31 34 8.1 100.39   -16 Snow
09:00 Legend Double Dagger -7.0 -8.5 89 30 39 6.4 100.35   -17 Snow
10:00 Legend Double Dagger -6.4 -8.8 83 30 39 12.9 100.35   -16 Snow
11:00 Legend Double Dagger -6.6 -9.5 80 31 41 16.1 100.37   -16 Snow
12:00 Legend Double Dagger -6.6 -9.4 80 30 41 16.1 100.39   -16 LegendNANA
13:00 Legend Double Dagger -6.7 -9.8 79 30 41 16.1 100.41   -16 LegendNANA
14:00 Legend Double Dagger -6.4 -9.8 77 29 37 16.1 100.44   -16 LegendNANA
15:00 Legend Double Dagger -6.2 -10.0 74 29 45 16.1 100.46   -16 LegendNANA
16:00 Legend Double Dagger -6.4 -10.2 75 29 39 16.1 100.48   -16 LegendNANA
17:00 Legend Double Dagger -6.5 -10.1 76 28 35 16.1 100.48   -16 LegendNANA
18:00 Legend Double Dagger -6.4 -9.6 78 28 32 16.1 100.50   -15 LegendNANA
19:00 Legend Double Dagger -6.2 -9.0 81 28 28 16.1 100.48   -14 LegendNANA
20:00 Legend Double Dagger -6.0 -8.4 83 28 34 16.1 100.45   -15 Snow
21:00 Legend Double Dagger -5.9 -7.6 88 27 26 16.1 100.42   -14 LegendNANA
22:00 Legend Double Dagger -6.1 -8.0 87 28 34 16.1 100.42   -15 Snow
23:00 Legend Double Dagger -5.9 -7.7 87 28 28 16.1 100.42   -14 LegendNANA

Notes on Data Quality.

Legend

  • E = Estimated
  • M = Missing
  • NA = Not Available
  • ‡ = Partner data that is not subject to review by the National Climate Archives
Date modified: